EHI
0 0 0 0 0 0 0 0 0 0 0 0 0 0 0 0 0 0 0 0 0 0 0 0 0 0 0 0 0 0 0 0 0 0 0 0 0 0
0 0 0 0 0 0 0 0 0 0 0 0 0 0 0 0 0 0 0 0 0 0 0 0 0 0 0 0 0 0 0 0 0 0 0 0 0 0
0 0 0 0 0 0 0 0 0 0 0 0 0 0 0 0 0 0 0 0 0 0 0 0 0 0 0 0 0 0 0 0 0 0 0 0 0 0
0 0 0 0 0 0 0 0 0 0 0 0 0 0 0 0 0 0 0 0 0 0 0 0 0 0 0 0 0 0 0 0 0 0 0 0 0 0
0 0 0 0 0 0 0 0 0 0 0 0 0 0 0 0 0 0 0 0 0 0 0 0 0 0 0 0 0 0 0 0 0 0 0 0 0 0
0 0 0 0 0 0 0 0 0 0 0 0 0 0 0 0 0 0 0 0 0 0 0 0 0 0 0 0 0 0 0 0 0 0 0 0 0 0
0 0 0 0 0 0 0 0 0 0 0 0 0 0 0 0 0 0 0 0 0 0 0 0 0 0 0 0 0 0 0 0 0 0 0 0 0 0
0 0 0 0 0 0 0 0 0 0 0 0 0 0 0 0 0 0 0 0 0 0 0 0 0 0 0 0 0 0 0 0 0 0 0 0 0 0
0 0 0 0 0 0 0 0 0 0 0 0 0 0 0 0 0 0 0 0 0 0 0 0 0 0 0 0 0 0 0 0 0 0 0 0 0 0
0 0 0 0 0 0 0 0 0 0 0 0 0 0 0 0 0 0 0 0 0 0 0 0 0 0 0 0 0 0 0 0 0 0 0 0 0 0
0 0 0 0 0 0 0 0 0 0 0 0 0 0 0 0 0 0 0 0 0 0 0 0 0 0 0 0 0 0 0 0 0 0 0 0 0 0
0 0 0 0 0 0 0 0 0 0 0 0 0 0 0 0 0 0 0 0 0 0 0 0 0 0 0 0 0 0 0 0 0 0 0 0 0 0
0 0 0 0 0 0 0 0 0 0 0 0 0 0 0 0 0 0 0 0 0 0 0 0 0 0 0 0 0 0 0 0 0 0 0 0 0 0
0 0 0 0 0 0 0 0 0 0 0 0 0 0 0 0 0 0 0 0 0 0 0 0 0 0 0 0 0 0 0 0 0 0 0 0 0 0
0 0 0 0 0 0 0 0 0 0 0 0 0 0 0 0 0 0 0 0 0 0 0 0 0 0 0 0 0 0 0 0 0 0 0 0 0 0
0 0 0 0 0 0 0 0 0 0 0 0 0 0 0 0 0 0 0 0 0 0 0 0 0 0 0 0 0 0 0 0 0 0 0 0 0 0
0 0 0 0 0 0 0 0 0 0 0 0 0 0 0 0 0 0 0 0 0 0 0 0 0 0 0 0 0 0 0 0 0 0 0 0 0 0
0 0 0 0 0 0 0 0 0 0 0 0 0 0 0 0 0 0 0 0 0 0 0 0 0 0 0 0 0 0 0 0 0 0 0 0 0 0
0 0 0 0 0 0 0 0 0 0 0 0 0 0 0 0 0 0 0 0 0 0 0 0 0 0 0 0 0 0 0 0 0 0 0 0 0 0
0 0 0 0 0 0 0 0 0 0 0 0 0 0 0 0 0 0 0 0 0 0 0 0 0 0 0 0 0 0 0 0 0 0 0 0 0 0
0 0 0 0 0 0 0 0 0 0 0 0 0 0 0 0 0 0 0 0 0 0 0 0 0 0 0 0 0 0 0 0 0 0 0 0 0 0
0 0 0 0 0 0 0 0 0 0 0 0 0 0 0 0 0 0 0 0 0 0 0 0 0 0 0 0 0 0 0 0 0 0 0 0 0 0
0 0 0 0 0 0 0 0 0 0 0 0 0 0 0 0 0 0 0 0 0 0 0 0 0 0 0 0 0 0 0 0 0 0 0 0 0 0
Wind_Speed
7 7 6 5 5 6 6 6 7 7 7 6 4 4 4 5 5 5 6 6 7 8 8 8 7 7 7 8 8 7 7 7 7 9 9 10 10 10
6 7 7 5 5 5 5 6 7 8 8 5 5 5 6 5 6 7 7 8 8 8 8 7 7 8 8 8 8 8 8 7 7 9 10 10 10 9
8 8 8 8 6 5 6 6 7 7 9 7 6 6 8 8 6 6 6 6 6 7 8 8 8 8 8 9 9 9 9 8 9 9 11 11 10 10
9 9 9 7 8 7 6 7 7 8 8 9 7 6 8 8 7 7 6 5 6 6 8 9 9 9 8 8 9 9 10 9 10 9 10 11 11 11
10 10 10 9 9 7 8 7 7 7 7 8 7 6 6 6 7 6 7 6 6 5 7 9 9 9 9 9 8 9 10 10 10 10 10 11 12 12
10 10 10 10 10 10 8 9 7 7 7 7 7 6 6 6 6 5 5 5 5 5 6 6 7 8 9 9 9 9 9 9 10 11 10 10 11 11
10 10 10 11 12 11 9 9 8 7 7 7 7 6 6 6 6 5 6 5 5 5 5 5 5 5 6 8 9 9 9 9 9 10 11 11 11 12
10 10 10 11 12 14 15 14 12 10 9 8 7 8 8 7 6 6 5 5 6 4 5 5 5 6 6 6 6 8 9 9 10 9 10 10 9 11
10 10 9 9 12 10 12 14 14 15 15 11 10 10 9 8 7 8 7 7 7 4 4 6 5 6 5 5 7 8 9 10 10 10 9 10 9 9
10 11 11 11 10 11 10 10 11 11 12 11 11 11 9 8 8 8 7 7 6 6 6 6 6 6 6 5 7 8 9 9 10 10 10 10 10 10
10 10 11 11 13 14 11 10 11 10 11 13 14 13 13 13 10 6 6 6 7 6 5 5 5 5 5 6 6 8 9 9 10 10 10 10 10 9
9 9 12 13 14 14 10 10 10 10 9 8 10 11 10 10 12 9 7 7 6 6 5 5 5 4 4 4 5 5 6 7 10 10 10 10 10 7
8 8 8 12 14 13 12 9 10 9 8 8 7 7 7 6 7 7 7 7 7 6 4 4 4 5 5 4 4 4 4 4 5 7 8 10 11 9
8 7 8 12 13 12 10 9 10 9 5 5 6 5 5 6 5 5 6 6 6 7 6 6 5 5 5 5 5 4 4 4 5 5 5 7 10 11
8 11 12 13 11 9 8 8 7 5 5 5 5 5 4 5 4 4 4 4 5 5 6 7 7 6 6 6 5 5 4 4 5 5 5 5 5 6
7 9 11 10 8 7 6 4 4 4 4 5 5 4 4 4 4 4 4 3 4 4 4 5 7 7 6 7 6 5 5 4 4 4 4 4 4 5
8 6 5 4 4 3 3 3 3 3 4 4 4 4 4 4 4 4 4 4 4 5 4 3 4 4 6 6 6 6 5 5 4 4 4 4 5 5
7 5 4 4 4 4 4 4 4 4 4 4 4 4 4 4 4 4 4 4 5 5 4 3 3 3 3 4 5 6 5 5 4 4 4 5 5 4
5 5 5 4 4 4 4 4 4 4 4 4 4 4 4 4 4 4 4 4 5 5 4 4 4 4 5 5 4 5 5 4 4 4 4 4 5 4
4 5 5 5 5 5 4 4 4 4 4 4 4 4 4 5 5 5 5 5 5 5 5 4 5 5 6 5 4 3 6 6 5 5 4 3 4 5
5 5 5 5 5 5 5 5 5 4 4 4 4 5 4 4 5 5 5 6 6 5 5 5 4 4 3 3 3 3 3 6 7 5 4 3 3 4
5 5 5 5 5 5 5 5 5 5 5 4 5 5 4 4 5 5 5 5 5 5 5 4 3 3 4 4 4 4 3 2 3 5 6 6 4 4
6 6 6 6 6 5 5 5 6 5 5 5 5 5 4 4 4 4 4 5 4 5 4 4 3 3 3 4 4 3 3 3 2 2 2 3 5 7
Wind_Direction
279 276 272 271 271 271 265 263 263 267 264 265 263 260 266 267 274 269 270 273 274 272 271 269 264 258 254 249 247 245 248 241 235 225 218 216 222 227
280 276 273 271 267 268 269 266 261 262 266 264 268 267 269 271 272 270 268 272 263 261 263 264 261 254 247 246 245 244 242 243 236 227 220 217 218 223
283 279 277 275 271 267 265 265 261 256 261 268 267 264 262 264 266 265 265 261 253 248 253 258 258 257 248 242 239 238 238 242 236 232 224 221 221 223
285 281 277 274 269 267 264 263 265 262 258 262 263 261 259 258 261 261 264 263 257 249 249 252 253 253 250 240 236 233 233 239 235 231 226 221 221 224
281 280 277 274 271 268 266 264 265 266 264 258 259 259 260 253 257 260 262 260 260 253 246 244 246 249 249 243 238 236 233 236 233 227 229 226 222 223
278 276 273 271 269 267 264 261 260 262 261 256 254 254 254 252 249 250 256 257 259 260 253 250 245 244 243 240 236 235 234 235 236 228 226 229 225 223
278 275 272 272 272 268 262 259 256 254 256 255 252 252 249 242 242 246 253 262 266 260 258 253 245 239 237 237 237 231 230 233 238 234 226 229 229 225
281 280 277 273 273 272 268 265 260 255 254 255 253 250 253 252 248 242 244 252 260 249 253 260 254 248 247 243 239 237 233 234 233 234 228 224 228 228
282 281 278 275 276 271 270 266 261 257 253 255 256 253 252 250 250 249 246 251 257 258 262 263 258 254 253 249 239 236 236 234 232 230 232 225 225 230
281 278 277 277 274 273 270 265 260 255 251 249 253 255 255 252 248 251 258 263 266 254 248 257 257 258 259 253 240 236 238 234 231 230 233 228 224 228
284 279 278 276 276 274 269 265 263 261 258 252 254 258 258 258 253 247 241 242 252 251 245 247 254 260 262 257 246 236 237 238 233 231 234 234 227 227
288 283 280 279 277 273 266 262 261 261 261 258 251 253 252 249 244 238 237 240 250 255 242 239 244 249 259 255 252 243 234 231 231 231 236 238 230 226
291 289 286 288 285 279 274 265 264 269 263 258 255 252 250 247 243 240 239 238 241 248 236 239 245 243 244 254 257 251 247 246 240 233 231 235 229 225
289 289 289 292 292 286 280 277 275 274 263 258 251 245 246 249 250 253 253 252 250 248 242 241 243 240 244 248 249 248 249 247 246 241 235 236 232 230
292 295 296 295 295 288 281 282 278 267 258 256 252 251 253 254 255 255 258 258 261 257 250 248 242 238 240 243 246 249 252 249 245 243 238 233 231 225
301 300 300 296 291 289 285 278 271 264 260 259 261 261 260 253 248 246 248 246 252 261 257 252 244 237 239 240 235 239 242 239 237 242 242 245 243 235
308 300 298 296 289 290 287 283 278 274 268 265 260 256 254 252 252 250 249 250 250 250 254 252 250 246 246 239 233 232 233 241 238 241 243 245 242 238
318 303 301 301 296 293 290 287 283 278 276 271 261 257 254 254 255 255 250 246 245 246 248 245 240 239 245 249 237 233 231 237 240 242 240 237 244 240
323 314 311 307 302 299 295 289 286 287 285 273 265 260 258 255 253 250 245 245 247 247 246 240 234 232 236 247 243 220 226 229 231 239 241 238 245 248
321 316 313 313 308 302 298 295 293 289 284 279 275 268 259 254 252 248 244 244 247 251 251 243 236 233 235 244 250 248 227 228 227 234 242 249 257 256
319 316 312 311 309 305 299 295 291 288 287 284 278 273 267 258 252 250 249 247 247 245 247 250 251 247 249 236 235 240 238 226 230 231 232 238 247 241
313 311 308 308 304 301 299 294 290 286 285 282 279 276 271 264 256 252 249 250 250 246 251 254 245 234 226 224 234 243 247 245 239 241 245 242 233 228
310 307 305 305 302 299 297 295 291 287 284 282 278 275 274 271 265 259 255 251 249 247 246 245 241 232 227 225 229 240 245 253 255 256 265 261 248 251